Voltar ao catálogo

BREEZE-M DEB

TANK

AtivoHEO
NORAD 40884·DEBRIS·🇷🇺 Russia

Lançado Aug 28, 2015 de Baikonur Cosmodrome

Loading…

Próximas Passagens (próximas 24 horas)

TLE

AtualizadoSource: Space-Track

Época: Sep 13, 2026, 21:41 UTC

1 40884U 15042C   26256.90410551  .00000506  00000-0  25485-3 0  9990
2 40884  50.7797 309.8862 5113938  94.3364 323.1090  5.36462558213497

Acompanhe BREEZE-M DEB em tempo real com AllMySat

Download on the App Store